Satellite-Ground Cal/Val Site Overpasses Predictions

Prediction of Satellite NPP Overpassing Cal/Val Site: Antarctic Dome C

Ground Cal/Val Site Location: Latitude: -75.10, Longitude: 123.35; Satellite-Ground Site NADIR distance within 100 km.

Table of predicted overpasses for the next 14.0 days since TLE Epoch: 6/17/2013
Interval Starting Time Ending Time Minimum Distance Time Minimum Distance (km)
1 06/18/2013 07:43:43 06/18/2013 07:44:04 06/18/2013 07:43:54 69.63
2 06/19/2013 07:24:50 06/19/2013 07:25:17 06/19/2013 07:25:04 38.40
3 06/21/2013 15:07:19 06/21/2013 15:07:21 06/21/2013 15:07:20 99.48
4 06/22/2013 14:48:16 06/22/2013 14:48:45 06/22/2013 14:48:30 12.03
5 06/24/2013 07:31:05 06/24/2013 07:31:34 06/24/2013 07:31:19 3.76
6 06/27/2013 14:54:31 06/27/2013 14:54:59 06/27/2013 14:54:45 24.15
7 06/28/2013 14:35:48 06/28/2013 14:36:04 06/28/2013 14:35:56 82.90
8 06/29/2013 07:37:21 06/29/2013 07:37:49 06/29/2013 07:37:35 33.53


NCC Satellite Cal/Val Overpasses Prediction Service
